Regional Weather Roundup
Issued by NWS

Home | Current Version | Previous Version | Graphics & Text | Print | Product List | Glossary On
Versions: 1 2 3 4 5 6 7 8 9 10 11 12 13 14 15 16 17 18 19 20 21 22 23 24 25 26 27 28 29 30 31 32 33 34 35 36 37 38 39 40 41 42 43 44 45 46 47 48 49 50
000
ASUS45 KTFX 260810
RWRMT
MONTANA REGIONAL WEATHER ROUNDUP
NATIONAL WEATHER SERVICE GREAT FALLS MT
200 AM MDT TUE MAY 26 2015

NOTE: "FAIR" INDICATES FEW OR NO CLOUDS BELOW 12000 FEET WITH NO
SIGNIFICANT WEATHER AND/OR OBSTRUCTIONS TO VISIBILITY.

MTZ001>007-043-260900-
WEST OF THE DIVIDE

CITY           SKY/WX    TMP DP  RH WIND       PRES   REMARKS
KALISPELL      CLOUDY    52  50  93 CALM      29.93F
MISSOULA       PTCLDY    46  43  89 CALM      29.96S
BUTTE          LGT RAIN  47  44  90 S5        30.00F
MULLAN PASS    PTCLDY    43  40  89 S5        29.98F
DEER LODGE       N/A     48  46  93 CALM      30.01S
EUREKA           N/A     52  52 100 CALM        N/A
HAMILTON         N/A     46  45  93 SW6       29.96S
LIBBY            N/A     48  45  87 CALM      29.95S
RONAN            N/A     50  48  92 CALM      29.99S
THOMPSON FALLS   N/A     46  45  97 CALM      29.99S
$$

MTZ008-052>055-260900-
SOUTHWEST MONTANA

CITY           SKY/WX    TMP DP  RH WIND       PRES   REMARKS
BOZEMAN        CLOUDY    51  47  86 S8        29.96S
DILLON         LGT RAIN  47  45  93 SW7       29.99S
W YELLOWSTONE  CLOUDY    45  41  87 W3        30.03S
THREE FORKS      N/A     53  25  34 CALM      29.96F
TWIN BRIDGES     N/A     50  46  85 E5        29.98F
$$

MTZ009-010-012-014-046-048-049-054-260900-
EAST SLOPES AND CENTRAL MONTANA

CITY           SKY/WX    TMP DP  RH WIND       PRES   REMARKS
CUT BANK       CLOUDY    50  48  93 CALM      29.91S
GREAT FALLS    CLOUDY    50  49  96 SW9       29.92R
MALMSTROM AFB  CLOUDY    52  51  95 SW9       29.92R
HELENA         LGT RAIN  57  46  66 SW3       29.93S
CONRAD           N/A     53  53 100 E6        29.94R
$$

MTZ011-013-016-021-045-047-050-051-260900-
NORTH CENTRAL MONTANA

CITY           SKY/WX    TMP DP  RH WIND       PRES   REMARKS
HAVRE          PTCLDY    49  42  77 SW6       29.87R
LEWISTOWN      PTCLDY    49  42  77 CALM      29.91S
N BAR RANCH    CLOUDY    54  45  71 CALM      29.94F
CHINOOK          N/A     52  43  71 CALM      29.86F
FORT BENTON      N/A     55  48  76 W6        29.89F
$$

MTZ017>020-022>027-061-062-260900-
NORTHEAST MONTANA

CITY           SKY/WX    TMP DP  RH WIND       PRES   REMARKS
GLASGOW        CLEAR     53  45  74 E10       29.89S
JORDAN           N/A     46  44  93 CALM      29.90S
SIDNEY         CLEAR     48  43  81 CALM      29.93R
WOLF POINT     CLEAR     48  44  86 CALM      29.91S
MALTA            N/A     52  44  74 CALM      29.85F
POPLAR           N/A     54  50  87 CALM      29.92R
SCOBEY           N/A     48  40  74 S6        29.90S
$$

MTZ028>42-056>058-260900-
SOUTHCENTRAL AND SOUTHEAST MONTANA

CITY           SKY/WX    TMP DP  RH WIND       PRES   REMARKS
BAKER          FOG       43  42  97 E5        29.95S VSB 3/4
BILLINGS       PTCLDY    52  46  80 NE6       29.89S
LIVINGSTON     CLOUDY    53  45  74 W8        29.92F
MILES CITY     CLEAR     52  50  93 SE7       29.92R
BIG TIMBER       N/A     52  45  76 W5        29.93S
EKALAKA          N/A     48  45  90 SE3       29.93S
FORSYTH          N/A     48  48 100 E3        29.90F
LAUREL           N/A     49  42  76 CALM      29.89S
ROUNDUP          N/A     49  42  76 CALM      29.83S
$$

REGIONAL REPORTS...DAKOTAS

CITY           SKY/WX    TMP DP  RH WIND       PRES   REMARKS
WILLISTON      CLEAR     45  42  89 CALM      29.91R
MINOT          CLEAR     58  46  64 SW12      29.85R
DICKINSON      CLEAR     46  43  89 SW5       29.92F
BEACH          PTSUNNY   43  43 100 S8        29.95F
CROSBY         FAIR      57  50  77 S9        29.88S
WATFORD CITY   FAIR      46  45  93 SW5       29.90S
BISMARCK       PTCLDY    53  50  89 W5        29.91S
GRAND FORKS    CLEAR     55  50  83 S10       29.82F
FARGO          CLEAR     49  48  97 SW3       29.86F FOG
BUFFALO SD       N/A     45  44  97 SW5       29.89S
RAPID CITY     CLOUDY    51  50  96 NE5       29.95F
$$

REGIONAL REPORTS...WYOMING/IDAHO/WASHINGTON

CITY           SKY/WX    TMP DP  RH WIND       PRES   REMARKS
GILLETTE       CLEAR     45  43  93 S9        29.95S
SHERIDAN       CLEAR     41  39  93 SW3       29.92F
BUFFALO WY     CLEAR     44  40  85 W8        29.96S
CODY           CLEAR     48  43  81 SW5       29.93F
YELLOWSTONE LA   N/A     34  33  96 CALM      30.09F
IDAHO FALLS    CLOUDY    51  45  79 S9        29.96S
SALMON         CLOUDY    48  46  93 CALM      29.97S
BOISE          PTCLDY    55  49  80 CALM      29.90S
SPOKANE        CLOUDY    53  47  79 S3        29.91F
$$

REGIONAL REPORTS...ALBERTA

CITY           SKY/WX    TMP DP  RH WIND       PRES   REMARKS
EDMONTON       CLEAR     54  37  54 N6        29.88R
CALGARY        MOCLDY    54  41  62 N8        29.92S
LETHBRIDGE     CLOUDY    52  46  82 SW7       29.88R
MEDICINE HAT   MOCLDY    54  43  66 S3        29.85S
$$

REGIONAL REPORTS...SASKATCHEWAN

CITY           SKY/WX    TMP DP  RH WIND       PRES   REMARKS
SWIFT CURRENT  CLEAR     54  41  62 SW13      29.87S
SASKATOON      PTCLDY    52  43  71 W7        29.84S
$$



USA.gov is the U.S. government's official web portal to all federal, state and local government web resources and services.